GCBPI EGTK-EGTK

Flight info

Callsign GCBPI
Flight time N/A
Altitude 2000
Route VFR
Aircraft P28A/L-V/N

Departure

Time 2026-04-13 12:13
Airport London Oxford Airport (EGTK)

Arrival

Time N/A
Airport London Oxford Airport (EGTK)
Time Latitude Longitude Altitude Speed Heading
2026-04-13 12:09 51.83200 -1.31665 246 ft 0 kts 245°
2026-04-13 12:09 51.83186 -1.31594 246 ft 10 kts 141°
2026-04-13 12:09 51.83089 -1.31526 246 ft 15 kts 178°
2026-04-13 12:10 51.83020 -1.31662 246 ft 23 kts 259°
2026-04-13 12:10 51.82992 -1.31960 248 ft 23 kts 261°
2026-04-13 12:10 51.83003 -1.32170 249 ft 17 kts 294°
2026-04-13 12:10 51.83045 -1.32190 251 ft 0 kts 11°
2026-04-13 12:11 51.83239 -1.32134 253 ft 60 kts 12°
2026-04-13 12:11 51.83747 -1.31983 371 ft 77 kts
2026-04-13 12:12 51.84285 -1.32069 596 ft 77 kts
2026-04-13 12:12 51.84768 -1.31727 661 ft 80 kts 43°
2026-04-13 12:12 51.85085 -1.31028 797 ft 73 kts 57°
2026-04-13 12:12 51.85371 -1.30300 846 ft 78 kts 58°
2026-04-13 12:13 51.85642 -1.29601 943 ft 77 kts 58°
2026-04-13 12:13 51.85926 -1.28877 1043 ft 75 kts 58°
2026-04-13 12:13 51.86210 -1.28154 1105 ft 77 kts 59°
2026-04-13 12:13 51.86495 -1.27432 1223 ft 78 kts 55°
2026-04-13 12:14 51.86789 -1.26680 1317 ft 83 kts 59°
2026-04-13 12:14 51.87113 -1.25866 1364 ft 89 kts 58°
2026-04-13 12:14 51.87466 -1.24975 1411 ft 93 kts 58°
2026-04-13 12:14 51.87823 -1.24089 1448 ft 97 kts 58°
2026-04-13 12:15 51.88186 -1.23178 1544 ft 93 kts 58°
2026-04-13 12:15 51.88544 -1.22287 1576 ft 98 kts 58°
2026-04-13 12:15 51.88909 -1.21383 1676 ft 94 kts 58°
2026-04-13 12:15 51.89283 -1.20460 1639 ft 104 kts 58°
2026-04-13 12:16 51.89695 -1.19434 1594 ft 111 kts 58°
2026-04-13 12:16 51.90109 -1.18411 1652 ft 107 kts 58°
2026-04-13 12:16 51.90538 -1.17345 1514 ft 120 kts 58°
2026-04-13 12:16 51.90979 -1.16251 1584 ft 111 kts 58°
2026-04-13 12:17 51.91409 -1.15193 1552 ft 115 kts 58°
2026-04-13 12:17 51.91853 -1.14097 1527 ft 117 kts 58°
2026-04-13 12:17 51.92289 -1.13024 1519 ft 117 kts 58°
2026-04-13 12:17 51.92731 -1.11943 1526 ft 116 kts 58°
2026-04-13 12:18 51.93184 -1.10838 1486 ft 119 kts 58°
2026-04-13 12:18 51.93639 -1.09734 1512 ft 116 kts 58°
2026-04-13 12:18 51.94098 -1.08630 1471 ft 119 kts 58°
2026-04-13 12:18 51.94553 -1.07535 1489 ft 117 kts 58°
2026-04-13 12:19 51.95002 -1.06435 1469 ft 118 kts 60°
2026-04-13 12:19 51.95428 -1.05295 1489 ft 115 kts 60°
2026-04-13 12:19 51.95838 -1.04191 1473 ft 116 kts 60°
2026-04-13 12:19 51.96254 -1.03053 1464 ft 116 kts 63°
2026-04-13 12:20 51.96630 -1.01909 1465 ft 116 kts 63°
2026-04-13 12:20 51.97008 -1.00756 1469 ft 115 kts 63°
2026-04-13 12:20 51.97356 -0.99696 1462 ft 116 kts 63°
2026-04-13 12:20 51.97739 -0.98544 1470 ft 115 kts 63°
2026-04-13 12:21 51.98118 -0.97398 1457 ft 116 kts 63°
2026-04-13 12:21 51.98468 -0.96229 1456 ft 115 kts 72°
2026-04-13 12:21 51.98727 -0.94986 1456 ft 114 kts 73°
2026-04-13 12:21 51.98980 -0.93766 1458 ft 114 kts 73°
2026-04-13 12:22 51.99215 -0.92610 1457 ft 114 kts 77°
2026-04-13 12:22 51.99231 -0.91311 1406 ft 115 kts 94°
2026-04-13 12:22 51.99200 -0.90035 1435 ft 113 kts 97°
2026-04-13 12:22 51.99085 -0.88750 1402 ft 114 kts 101°
2026-04-13 12:23 51.98967 -0.87518 1438 ft 111 kts 101°
2026-04-13 12:23 51.98840 -0.86254 1376 ft 116 kts 101°
2026-04-13 12:23 51.98713 -0.85013 1424 ft 111 kts 101°
2026-04-13 12:23 51.98581 -0.83749 1396 ft 113 kts 101°
2026-04-13 12:24 51.98447 -0.82495 1406 ft 112 kts 101°
2026-04-13 12:24 51.98316 -0.81239 1406 ft 117 kts 100°
2026-04-13 12:24 51.98177 -0.79901 1506 ft 123 kts 100°
2026-04-13 12:24 51.98027 -0.78506 1601 ft 125 kts 100°
2026-04-13 12:25 51.97884 -0.77142 1758 ft 123 kts 100°
2026-04-13 12:25 51.97728 -0.75661 1555 ft 140 kts 100°
2026-04-13 12:25 51.97567 -0.74108 1585 ft 138 kts 100°
2026-04-13 12:25 51.97413 -0.72572 1667 ft 133 kts 100°
2026-04-13 12:26 51.97261 -0.71069 1703 ft 134 kts 101°
2026-04-13 12:26 51.97111 -0.69600 1731 ft 136 kts 100°
2026-04-13 12:26 51.96957 -0.68074 1765 ft 134 kts 100°
2026-04-13 12:26 51.96807 -0.66592 1841 ft 131 kts 100°
2026-04-13 12:27 51.96658 -0.65093 1865 ft 133 kts 99°
2026-04-13 12:27 51.96358 -0.62097 1904 ft 135 kts 99°
2026-04-13 12:27 51.96207 -0.60583 1868 ft 140 kts 99°
2026-04-13 12:28 51.96044 -0.58978 1736 ft 145 kts 100°
2026-04-13 12:28 51.95886 -0.57389 1743 ft 141 kts 100°
2026-04-13 12:28 51.95484 -0.55908 1511 ft 150 kts 118°
2026-04-13 12:28 51.95101 -0.54464 1678 ft 133 kts 122°
2026-04-13 12:29 51.94596 -0.53217 1723 ft 132 kts 122°
2026-04-13 12:29 51.94085 -0.51954 1712 ft 135 kts 123°
2026-04-13 12:29 51.93580 -0.50690 1737 ft 135 kts 123°
2026-04-13 12:29 51.93059 -0.49392 1704 ft 136 kts 123°
2026-04-13 12:30 51.92538 -0.48099 1708 ft 136 kts 123°
2026-04-13 12:30 51.92009 -0.46789 1607 ft 140 kts 123°
2026-04-13 12:30 51.91491 -0.45493 1712 ft 131 kts 123°
2026-04-13 12:30 51.90993 -0.44236 1720 ft 134 kts 122°
2026-04-13 12:31 51.90830 -0.42762 1629 ft 144 kts 79°
2026-04-13 12:31 51.91098 -0.41271 1801 ft 130 kts 76°
2026-04-13 12:31 51.91347 -0.39866 1917 ft 127 kts 74°
2026-04-13 12:31 51.91849 -0.38836 1951 ft 134 kts 358°
2026-04-13 12:32 51.92068 -0.39989 1555 ft 150 kts 210°
2026-04-13 12:32 51.92265 -0.39564 1358 ft 142 kts 283°
2026-04-13 12:32 51.91847 -0.39126 1334 ft 111 kts 92°
2026-04-13 12:32 51.92092 -0.37972 1159 ft 109 kts 58°
2026-04-13 12:33 51.92593 -0.37766 1096 ft 117 kts 273°
2026-04-13 12:33 51.92020 -0.37508 1162 ft 114 kts 133°
2026-04-13 12:33 51.91839 -0.36293 1238 ft 123 kts 80°
2026-04-13 12:33 51.91970 -0.35053 1318 ft 100 kts 84°
2026-04-13 12:34 51.91979 -0.33941 1386 ft 88 kts 94°
2026-04-13 12:34 51.91978 -0.32935 1393 ft 92 kts 82°
2026-04-13 12:34 51.91816 -0.31905 1431 ft 96 kts 112°
2026-04-13 12:34 51.91529 -0.30955 1470 ft 98 kts 131°
2026-04-13 12:35 51.91014 -0.30278 1492 ft 103 kts 153°
2026-04-13 12:35 51.90311 -0.29955 1574 ft 112 kts 181°
2026-04-13 12:35 51.89523 -0.30179 1744 ft 113 kts 189°
2026-04-13 12:35 51.88855 -0.30546 1673 ft 88 kts 213°
2026-04-13 12:36 51.88445 -0.31342 1373 ft 95 kts 236°
2026-04-13 12:36 51.88209 -0.32334 1142 ft 94 kts 251°
2026-04-13 12:36 51.88056 -0.33269 950 ft 70 kts 257°
2026-04-13 12:36 51.87963 -0.33978 801 ft 65 kts 251°
2026-04-13 12:37 51.87834 -0.34683 660 ft 65 kts 249°
2026-04-13 12:37 51.87710 -0.35390 564 ft 64 kts 252°
2026-04-13 12:37 51.87603 -0.36032 516 ft 50 kts 253°
2026-04-13 12:37 51.87524 -0.36499 521 ft 34 kts 259°
2026-04-13 12:38 51.87475 -0.36814 525 ft 17 kts 265°
2026-04-13 12:38 51.87564 -0.36956 524 ft 11 kts 329°
2026-04-13 12:38 51.87585 -0.36986 523 ft 0 kts 317°
2026-04-13 12:39 51.87594 -0.36994 523 ft 9 kts 343°
2026-04-13 12:39 51.87764 -0.36995 518 ft 37 kts 340°
2026-04-13 12:39 51.88021 -0.37129 512 ft 37 kts 342°
2026-04-13 12:39 51.88215 -0.37166 511 ft 23 kts 61°
2026-04-13 12:40 51.88254 -0.37100 509 ft 0 kts 191°